Weather Roundup
Issued by NWS

Home | Current Version | Previous Version | Text Only | Print | Product List | Glossary On
Versions: 1 2 3 4 5 6 7 8 9 10 11 12 13 14 15 16 17 18 19 20 21 22 23 24 25 26 27 28 29 30 31 32 33 34 35 36 37 38 39 40 41 42 43 44 45 46 47 48 49 50
000
NZUS93 KARX 161110
HRRWXR

CURRENT HOURLY OBSERVATIONS ACROSS
MUCH OF THE UPPER MISSISSIPPI VALLEY
NATIONAL WEATHER SERVICE LA CROSSE WI
600 AM CDT TUE SEP 16 2014


...SOUTHEAST MINNESOTA...


CITY           SKY/WX    TMP DP  RH WIND       PRES   REMARKS
ROCHESTER      CLEAR     39  36  89 SW7       30.22F WCI  34
ROCHESTER/MAYO FAIR      43  37  79 CALM      30.22S
WINONA         CLEAR     39  39 100 CALM      30.22F
AUSTIN         FOG       37  36  93 CALM      30.22S VSB 3/4
ALBERT LEA     CLEAR     39  39 100 CALM      30.22S
DODGE CENTER   PTCLDY    39  37  93 SW6       30.21F WCI  35
PRESTON        CLEAR     40  39  98 SW5       30.22F
OWATONNA       CLEAR     39  36  87 CALM      30.21S
FARIBAULT      CLEAR     39  34  81 CALM      30.21S
$$

...ELSEWHERE IN MINNESOTA...


CITY           SKY/WX    TMP DP  RH WIND       PRES   REMARKS
MINNEAPOLIS    CLEAR     44  39  82 S3        30.19F
INTNL FALLS    CLEAR     39  37  92 SW7       29.99F WCI  34
DULUTH         PTCLDY    45  36  70 W13       30.09F
RED WING       CLEAR     37  36  93 CALM      30.20S
REDWOOD FALLS  CLEAR     42  38  85 SW8       30.19S
MANKATO        CLEAR     39  34  81 S5        30.20F
WORTHINGTON    CLEAR     39  37  93 SW5       30.22S
FAIRMONT       CLEAR     43  36  75 SW5       30.21F
$$

...SOUTHWEST WISCONSIN...


CITY           SKY/WX    TMP DP  RH WIND       PRES   REMARKS
LA CROSSE      FOG       45  44  97 SE5       30.22S VSB 1/2
PRAIRIE DU CHI DRZL/FOG  43  42  96 CALM      30.23F VSB 1/4
BOSCOBEL       FOG       43  42  97 S3        30.23S VSB 1/4
LONE ROCK      FOG       43  39  86 W3        30.22F VSB 1/4
PLATTEVILLE      N/A     37  36  93 CALM      30.23S VSB 1/4
FORT MC COY    FOG       33  33 100 CALM      30.23S VSB 1/2
CAMP DOUGLAS   CLEAR     33  33 100 CALM      30.20S
VIROQUA          N/A     38  38 100 CALM      30.21S
WIS DELLS      CLEAR     37  36  96 CALM      30.21S FOG
$$

...ELSEWHERE IN WISCONSIN...


CITY           SKY/WX    TMP DP  RH WIND       PRES   REMARKS
MILWAUKEE      CLEAR     45  41  86 NW6       30.19S
MADISON        CLEAR     38  37  97 CALM      30.22S
GREEN BAY      CLEAR     39  38  96 W5        30.18S
EAU CLAIRE     CLEAR     39  37  92 SW5       30.19F
BLACK RVR FLS  FOG       33  33 100 CALM      30.21S VSB<1/4
MEDFORD        CLEAR     37  35  95 CALM      30.18S
WAUSAU         CLEAR     37  35  92 N3        30.17S
WIS RAPIDS     CLEAR     38  36  92 CALM      30.21S
MARSHFIELD     CLEAR     39  37  92 W5        30.19S
RICE LAKE      CLEAR     36  35  96 CALM      30.19F
$$

...NORTHEAST IOWA...


CITY           SKY/WX    TMP DP  RH WIND       PRES   REMARKS
WATERLOO       CLEAR     35  34  96 CALM      30.24S
DUBUQUE        CLEAR     40  38  93 CALM      30.23S
DECORAH        CLEAR     39  39 100 CALM      30.22S
MASON CITY     CLEAR     37  36  96 CALM      30.24S
CHARLES CITY   CLEAR     37  36  93 CALM      30.24S FOG
OELWEIN        CLEAR     37  37 100 CALM      30.24S FOG
$$

...ELSEWHERE IN IOWA...


CITY           SKY/WX    TMP DP  RH WIND       PRES   REMARKS
DES MOINES     CLEAR     46  42  86 CALM      30.25F
IOWA CITY      CLEAR     41  40  96 W6        30.25S
FORT DODGE     CLEAR     37  36  93 CALM      30.24F
MARSHALLTOWN   FOG       38  37  97 CALM      30.24S VSB 3/4
CEDAR RAPIDS   CLEAR     40  40 100 NW3       30.23S
$$

...NORTHERN ILLINOIS...


CITY           SKY/WX    TMP DP  RH WIND       PRES   REMARKS
CHICAGO-OHARE  PTCLDY    46  43  89 NW3       30.19S
DUPAGE         CLEAR     41  39  93 N3        30.19S
CHICAGO-MIDWAY PTCLDY    48  46  93 N3        30.19S
MOLINE         CLEAR     41  40  96 CALM      30.23S
ROCKFORD       CLEAR     42  39  89 CALM      30.23S
STERLING       CLEAR     39  36  87 W3        30.22S
PEORIA         FOG       49  46  90 CALM      30.23R VSB 1/2
$$

NOTE: "FAIR" INDICATES FEW OR NO CLOUDS BELOW 12,000 FEET WITH NO
SIGNIFICANT WEATHER AND/OR OBSTRUCTIONS TO VISIBILITY. WIND
SPEEDS ARE IN MILES-PER-HOUR.



USA.gov is the U.S. government's official web portal to all federal, state and local government web resources and services.